Location: Petruro
(41.0333°N, 14.7833°E)
Time: 15:08:45
(UTC+00:00)

Cosmos 1151 Rocket - Pass Details

Date: 20 June 2021
Orbit: 592 x 615 km, 82.5° (Epoch: 04 August)

Event Time Altitude Azimuth Distance (km) Brightness Sun altitude
Rises 01:12:40 0° 360° (N) 2,842 7.5 -18.8°
Reaches altitude 10° 01:15:00 10° 8° (N) 1,934 6.6 -18.6°
Maximum altitude 01:19:00 38° 78° (ENE) 909 4.3 -18.2°
Drops below altitude 10° 01:22:58 10° 147° (SSE) 1,919 5.3 -17.8°
Enters shadow 01:23:08 - 148° (SSE) 1,983 5.4 -17.7°
